Location: Willis Wharf
(37.5156°N, 75.8067°W)
Time: 10:36:26
(UTC-04:00)

Hubble Space Telescope - Visible Passes

Search period start: 20 July 2018 00:00
Search period end: 30 July 2018 00:00
Orbit: 537 x 541 km, 28.5° (Epoch: 19 July)

Date Brightness Start Highest point End Pass type
(mag) Time Alt. Az. Time Alt. Az. Time Alt. Az.
20 Jul 3.1 03:36:58 13° SE 03:36:58 13° SE 03:37:43 10° ESE visible
20 Jul 2.3 05:12:20 11° SW 05:15:09 21° S 05:18:15 10° SE visible
21 Jul 2.3 05:02:44 14° SW 05:04:42 19° S 05:07:39 10° SE visible
22 Jul 2.4 04:53:17 16° SSW 04:54:15 17° SSW 04:56:59 10° SSE visible
23 Jul 2.6 04:44:00 15° SSW 04:44:00 15° SSW 04:46:13 10° SSE visible
24 Jul 3.0 04:34:54 11° S 04:34:54 11° S 04:35:17 10° SSE visible
29 Jul 2.8 20:46:34 10° S 20:48:11 12° SSE 20:49:48 10° SE visible
29 Jul 3.3 22:25:32 10° SW 22:25:46 11° SW 22:25:46 11° SW visible
